Lid_Strength_Index
3 3 2 2 2 2 2 2 2 2 2 1 1 1 1 1 1 3 7 4 3 -1 -0 4 4 4 4 6 8 9 10 11 11 10 9 7 7 6 6 6 7 7 6 6 2
3 3 3 3 2 2 2 2 2 2 2 1 1 1 1 1 3 6 1 0 -1 -1 4 5 6 5 7 7 7 8 10 11 10 9 8 8 7 7 7 7 6 6 5 4 3
3 3 3 3 3 3 2 2 2 2 2 1 1 1 1 1 6 6 -1 -1 -1 0 3 4 5 6 8 7 8 9 10 10 9 8 7 7 7 6 7 7 6 6 5 5 4
4 3 3 3 3 3 3 3 2 2 2 2 2 1 1 2 10 5 -3 -2 -2 1 4 5 6 7 8 8 8 9 9 8 7 7 7 7 6 7 6 6 5 5 5 5 4
4 4 4 4 3 3 3 3 3 2 2 2 2 1 2 6 6 2 -3 -2 1 3 5 6 7 8 8 8 8 8 8 8 7 7 7 7 7 7 7 5 5 5 5 4 3
4 4 4 4 4 3 3 3 3 3 3 2 1 1 5 8 3 3 3 3 3 3 5 5 6 6 7 8 8 8 8 8 7 7 7 8 7 8 6 5 5 5 4 4 3
4 4 4 4 4 3 3 3 3 3 2 2 1 2 6 6 2 2 3 3 3 3 4 4 5 6 6 8 7 7 9 9 8 8 8 7 8 8 6 5 5 4 4 3 2
4 4 4 4 4 4 3 3 3 3 2 2 1 2 6 4 2 2 3 3 3 3 3 4 4 5 6 6 7 9 9 10 8 8 8 7 10 7 5 5 5 4 4 3 2
4 5 4 4 4 4 4 4 3 2 1 1 2 4 6 2 4 3 2 4 4 4 4 4 4 6 6 8 9 10 11 11 10 8 8 8 9 6 5 6 5 4 4 4 3
4 5 5 4 4 4 4 4 2 1 1 1 2 5 4 5 3 4 3 4 5 5 5 6 6 7 7 8 12 12 11 11 11 9 9 9 9 7 5 6 5 5 4 4 4
4 5 5 4 4 5 4 4 4 5 4 5 6 5 5 3 3 4 4 5 5 6 8 8 9 10 9 9 9 10 11 11 9 8 10 9 9 7 6 6 6 5 5 4 4
5 5 5 5 5 4 5 5 5 5 7 5 5 5 4 3 6 4 3 6 7 9 8 9 10 8 8 9 9 10 11 10 9 8 9 9 9 7 6 6 6 5 5 4 4
5 5 5 5 5 5 5 4 4 4 6 6 5 6 5 4 6 6 4 6 8 9 9 10 9 8 9 9 10 9 10 10 10 9 9 9 10 9 7 7 5 5 5 5 4
6 6 6 6 6 7 5 4 4 3 9 8 6 5 5 5 7 4 4 6 8 9 9 9 8 9 9 9 9 10 8 9 10 11 12 9 13 9 8 8 6 5 5 4 4
6 6 6 6 7 6 5 5 3 2 15 7 6 3 5 6 7 6 5 6 8 8 8 9 9 9 10 9 8 9 8 9 10 10 11 10 12 10 9 9 7 6 5 4 4
6 6 6 6 6 5 5 5 3 10 15 9 7 8 7 7 7 6 6 5 6 8 8 8 8 8 8 8 8 8 9 10 11 11 14 11 12 12 9 8 7 6 5 4 4
6 6 6 5 6 5 4 5 11 14 8 9 9 8 8 9 8 8 8 8 9 11 11 9 9 7 7 9 8 9 10 14 15 15 15 12 13 11 8 7 6 6 5 4 4
6 6 6 4 4 4 4 7 14 13 10 8 9 8 10 9 8 8 9 10 8 9 10 12 13 9 7 8 9 9 9 13 18 16 14 12 14 11 7 6 5 5 4 4 4
6 7 5 4 2 3 5 10 11 11 8 9 9 10 10 9 9 9 9 10 9 8 11 11 12 8 8 8 8 10 11 9 12 13 14 12 11 9 7 7 6 5 5 5 4
9 9 7 5 3 3 6 11 10 7 7 7 11 9 11 9 9 9 9 8 9 8 7 9 12 9 8 8 8 9 8 12 11 17 17 14 13 12 9 8 6 6 6 5 4
9 9 6 4 2 5 10 9 9 7 8 8 9 9 9 10 9 9 9 7 6 7 7 8 10 10 9 10 10 10 11 11 11 12 16 16 14 9 8 7 7 6 5 5 5
11 11 7 4 6 8 10 10 9 8 8 8 8 8 10 9 10 10 10 8 6 6 9 7 10 13 11 8 8 8 10 10 15 14 13 14 14 8 7 7 6 6 5 5 5
12 12 6 4 10 11 11 12 9 10 10 9 9 8 8 10 11 9 9 7 7 7 9 8 11 15 13 10 9 10 9 10 11 11 14 16 14 8 7 7 6 6 6 5 5
9 11 8 8 9 13 13 13 13 10 9 9 9 8 10 10 9 10 10 7 7 7 6 7 10 12 16 12 10 12 10 10 11 15 14 13 12 9 8 7 7 7 6 6 5
10 11 12 13 13 13 12 13 13 13 10 10 11 10 11 13 11 11 9 8 7 6 7 9 14 12 11 10 11 11 11 11 13 12 14 12 11 9 8 8 7 7 6 6 5
13 14 13 14 13 13 13 14 13 12 14 14 12 11 11 12 12 13 10 9 10 7 8 9 14 13 14 11 11 13 12 12 12 11 11 10 11 8 7 7 7 6 6 6 5
10 10 11 14 13 13 13 12 13 13 12 10 11 11 12 11 9 8 8 8 8 9 9 10 12 14 16 11 12 15 12 11 10 9 10 12 9 7 8 7 7 7 6 6 5